Change the Weather History Date:

Saturday, May 4, 2013

  Actual Average (KISQ) Record (KISQ)
Temperature  
Mean Temperature 39 °F -  
Max Temperature 42 °F 54 °F 78 °F (1949)
Min Temperature 37 °F 36 °F 24 °F (1954)
Degree Days  
Heating Degree Days 26    
Moisture  
Dew Point 34 °F    
Average Humidity 83    
Maximum Humidity 89    
Minimum Humidity 76    
Precipitation  
Precipitation 0.05 in - - ()
Sea Level Pressure  
Sea Level Pressure 30.19 in    
Wind  
Wind Speed 8 mph (NNW)    
Max Wind Speed 14 mph    
Max Gust Speed -    
Averages and records for this station are not official NWS values.
T = Trace of Precipitation, MM = Missing Value Source: NWS Daily Summary

Daily Weather History Graph

Daily Weather History Graph

Search for Another Location

Airport or City:

Trip Planner

Search our weather history database for the weather conditions in past years. The results will help you decide how hot, cold, wet, or windy it might be!

Date:

Astronomy

May. 04, 2013 Rise Set
Actual Time 6:27 AM EDT 8:59 PM EDT
Civil Twilight 5:53 AM EDT 9:33 PM EDT
Nautical Twilight 5:11 AM EDT 10:16 PM EDT
Astronomical Twilight 4:22 AM EDT 11:06 PM EDT
Moon 3:44 AM EDT 3:40 PM EDT
Length of Visible Light 15h 40m
Length of Day
14h 32m
Waning Crescent, 27% of the Moon is Illuminated
May 4
Waning Crescent
May 9
New
May 18
First Quarter
May 25
Full
May 31
Last Quarter

Hourly Weather History & Observations

Time (EDT) Temp. Windchill Dew Point Humidity Pressure Visibility Wind Dir Wind Speed Gust Speed Precip Events Conditions
12:56 AM 37.0 °F 30.4 °F 33.1 °F 86% 30.20 in - North 9.2 mph - 0.04 in   Unknown
1:56 AM 37.0 °F 30.4 °F 33.1 °F 86% 30.19 in - NNW 9.2 mph - 0.01 in   Unknown
2:56 AM 37.0 °F 33.3 °F 34.0 °F 89% 30.18 in - North 4.6 mph - N/A   Unknown
3:56 AM 37.0 °F 34.5 °F 34.0 °F 89% 30.17 in - North 3.5 mph - N/A   Unknown
4:56 AM 37.0 °F 34.5 °F 33.1 °F 86% 30.17 in - Variable 3.5 mph - N/A   Unknown
5:56 AM 37.0 °F 33.3 °F 34.0 °F 89% 30.17 in - North 4.6 mph - N/A   Unknown
6:56 AM 37.0 °F 33.3 °F 34.0 °F 89% 30.18 in - NNW 4.6 mph - N/A   Unknown
7:56 AM 37.0 °F 34.5 °F 34.0 °F 89% 30.19 in - NNW 3.5 mph - N/A   Unknown
8:56 AM 37.9 °F 33.5 °F 34.0 °F 86% 30.19 in - NNW 5.8 mph - N/A   Unknown
9:56 AM 39.0 °F 32.3 °F 34.0 °F 82% 30.19 in - NNW 10.4 mph - N/A   Unknown
10:56 AM 41.0 °F 35.2 °F 35.1 °F 79% 30.20 in - NNW 9.2 mph - N/A   Unknown
11:56 AM 41.0 °F 34.3 °F 35.1 °F 79% 30.20 in - NNW 11.5 mph - N/A   Unknown
12:56 PM 41.0 °F 34.3 °F 35.1 °F 79% 30.21 in - NNW 11.5 mph - N/A   Unknown
1:56 PM 41.0 °F 33.9 °F 34.0 °F 76% 30.21 in - NNW 12.7 mph - N/A   Unknown
2:56 PM 41.0 °F 33.5 °F 34.0 °F 76% 30.21 in - NNW 13.8 mph - N/A   Unknown
3:56 PM 41.0 °F 34.3 °F 34.0 °F 76% 30.19 in - NNW 11.5 mph - N/A   Unknown
4:56 PM 41.0 °F 33.9 °F 34.0 °F 76% 30.19 in - North 12.7 mph - N/A   Unknown
5:56 PM 39.9 °F 32.5 °F 34.0 °F 79% 30.19 in - North 12.7 mph - N/A   Unknown
6:56 PM 39.9 °F 32.9 °F 34.0 °F 79% 30.19 in - North 11.5 mph - N/A   Unknown
7:56 PM 39.0 °F 32.8 °F 34.0 °F 82% 30.19 in - North 9.2 mph - N/A   Unknown
8:56 PM 37.9 °F 32.1 °F 34.0 °F 86% 30.21 in - North 8.1 mph - N/A   Unknown
9:56 PM 37.9 °F 33.5 °F 34.0 °F 86% 30.22 in - North 5.8 mph - N/A   Unknown
10:56 PM 37.9 °F 32.7 °F 34.0 °F 86% 30.22 in - North 6.9 mph - N/A   Unknown
11:56 PM 37.9 °F 33.5 °F 34.0 °F 86% 30.21 in - North 5.8 mph - N/A   Unknown